sat.trackr.live / text

‹ back to catalog

UNKNOWN

NORAD 81311

UNKNOWN UNKNOWN UNKNOWN

§ Identity

Operator
Country
Launch date
Launch site
Launch vehicle
Mass (kg)
RCS (m²)

External: N2YO · Heavens-Above

§ Orbital elements

Epoch: 2026-09-18T10:37:51.078720Z

Period
98.84 min
Inclination
98.6990°
Eccentricity
0.0130383
Mean motion
14.56896735 rev/d
Perigee alt
610.9 km
Apogee alt
795.5 km
Semi-major
7,081.3 km
B*
6.1583e-5
RAAN
336.3980°
Arg perigee
349.6909°
Mean anomaly
69.9714°
Rev number
68,031

§ Raw data

UNKNOWN1 81311U          26261.44295230  .00000251  00000+0  61583-4 0  99942 81311  98.6990 336.3980 0130383 349.6909  69.9714 14.56896735680315

JSON: /api/v1/satellites/81311 · /tle

For live sub-satellite position, see the globe view (requires WebGL).

§ Visibility from observer

Set your observer location to see the next 7 days of passes ≥ 10°. The values pass through the URL so the page stays shareable.

No JS? Fill the form by hand. The geolocation button needs JavaScript.